Погода в Головановке

Россия / Республика Крым     44°58′40″N   34°37′38″E
темп.,
°C
ветер,
м/с
пор.,
м/с
влажн.,
%
обл.,
%
осадки,
мм/ч
давл.,
гПа
погр.,
м
15 апреля, чт
чт1500:00+7ю469574 0.0 1015221
03:00+6ю349061 0.0 101466
06:00+5ююз229411 0.2 101539
09:00+10ююз366764 0.2 1015761
12:00+14юз59443 0.0 10141709
15:00+13зюз711443 0.0 10151655
18:00+11з5953100 0.0 1016982
21:00+7зсз1274100 0.0 101765
16 апреля, пт
пт1600:00+6ссз0184100 0.0 101725
03:00+4зсз1187100 0.0 101829
06:00+4зюз117911 0.0 101811
09:00+9в11602 0.0 1018634
12:00+12сз144996 0.0 10181670
15:00+12юз355187 0.1 10181460
18:00+10з46483 0.1 1018879
21:00+5зсз36800 0.1 1021219
17 апреля, сб
сб1700:00+3з249038 0.0 1021102
03:00+3з228417 0.0 102230
06:00+2зюз1278100 0.0 102312
09:00+8ссв1153100 0.0 1023549
12:00+11в2245100 0.0 10231245
15:00+12в334753 0.0 10211406
18:00+9юв34541 0.0 1022665
21:00+5ююв2268100 0.0 102255
18 апреля, вс
вс1800:00+5ююв2364100 0.0 102064
03:00+6юв246197 0.0 1018156
06:00+5вюв2580100 0.4 1017221
09:00+6вюв2391100 1.6 1016194
12:00+11в237991 0.0 1016553
15:00+12в337874 0.1 1015582
18:00+11в238372 0.0 1015430
21:00+8вюв2296100 0.0 1016142
19 апреля, пн
пн1900:00+8ююв1296100 0.0 101555
03:00+7ю119558 0.0 101521
06:00+7всв1195100 0.0 101422
09:00+11в238242 0.0 1013384
12:00+15в3369100 0.0 1012675
15:00+13вюв3478100 0.3 1011532
18:00+12юв3486100 0.1 1009244
21:00+11юв41194100 1.1 1007607